SFR512 FALE-FAOR

Flight info

Callsign SFR512
Flight time 0h 50m
Altitude 34000
Route GEPOM UZ29 UNPOM UNPOM1A
Aircraft B738/M-SDE2E3FGHIRWXY/LB1

Departure

Time 2026-05-05 16:08
Airport King Shaka International Airport (FALE)

Arrival

Time 2026-05-05 16:58
Airport O.R. Tambo International Airport (FAOR)
Time Latitude Longitude Altitude Speed Heading
2026-05-05 15:42 -29.61996 31.10549 295 ft 0 kts 306°
2026-05-05 15:59 -29.61997 31.10549 295 ft 0 kts 306°
2026-05-05 15:59 -29.62010 31.10569 299 ft 4 kts 307°
2026-05-05 15:59 -29.62023 31.10590 297 ft 4 kts 285°
2026-05-05 16:00 -29.62020 31.10615 295 ft 4 kts 226°
2026-05-05 16:00 -29.62007 31.10629 300 ft 1 kts 219°
2026-05-05 16:00 -29.62005 31.10631 299 ft 0 kts 219°
2026-05-05 16:04 -29.62019 31.10618 298 ft 7 kts 219°
2026-05-05 16:04 -29.62083 31.10558 295 ft 16 kts 218°
2026-05-05 16:04 -29.62167 31.10485 295 ft 11 kts 217°
2026-05-05 16:04 -29.62222 31.10440 297 ft 9 kts 211°
2026-05-05 16:05 -29.62272 31.10451 297 ft 7 kts 135°
2026-05-05 16:05 -29.62302 31.10491 299 ft 6 kts 129°
2026-05-05 16:05 -29.62328 31.10531 300 ft 6 kts 127°
2026-05-05 16:05 -29.62351 31.10565 295 ft 5 kts 127°
2026-05-05 16:06 -29.62370 31.10595 299 ft 5 kts 127°
2026-05-05 16:06 -29.62390 31.10624 295 ft 5 kts 127°
2026-05-05 16:06 -29.62409 31.10653 296 ft 5 kts 127°
2026-05-05 16:06 -29.62444 31.10706 295 ft 7 kts 127°
2026-05-05 16:07 -29.62478 31.10749 286 ft 7 kts 134°
2026-05-05 16:07 -29.62483 31.10796 295 ft 7 kts 40°
2026-05-05 16:07 -29.62441 31.10835 296 ft 15 kts 38°
2026-05-05 16:07 -29.62167 31.11072 301 ft 84 kts 37°
2026-05-05 16:08 -29.61526 31.11628 301 ft 144 kts 37°
2026-05-05 16:08 -29.60649 31.12395 649 ft 164 kts 37°
2026-05-05 16:08 -29.59719 31.13230 1212 ft 176 kts 38°
2026-05-05 16:08 -29.58785 31.14144 1952 ft 177 kts 41°
2026-05-05 16:09 -29.57722 31.15009 2442 ft 201 kts 34°
2026-05-05 16:09 -29.56458 31.15922 2676 ft 226 kts 33°
2026-05-05 16:09 -29.54946 31.16676 2962 ft 253 kts
2026-05-05 16:09 -29.53223 31.16207 3725 ft 263 kts 329°
2026-05-05 16:10 -29.51953 31.14687 4628 ft 266 kts 309°
2026-05-05 16:10 -29.50855 31.12980 5548 ft 265 kts 308°
2026-05-05 16:10 -29.49785 31.11315 6554 ft 259 kts 308°
2026-05-05 16:10 -29.48709 31.09673 7440 ft 258 kts 308°
2026-05-05 16:11 -29.47619 31.08045 8322 ft 256 kts 308°
2026-05-05 16:11 -29.44272 31.03186 10490 ft 272 kts 309°
2026-05-05 16:12 -29.43032 31.01415 10663 ft 296 kts 309°
2026-05-05 16:12 -29.40253 30.97475 11046 ft 335 kts 309°
2026-05-05 16:13 -29.35755 30.91141 12812 ft 346 kts 309°
2026-05-05 16:13 -29.34233 30.89003 13525 ft 347 kts 309°
2026-05-05 16:13 -29.32698 30.86848 14094 ft 351 kts 309°
2026-05-05 16:14 -29.29586 30.82481 15191 ft 356 kts 309°
2026-05-05 16:14 -29.26447 30.78084 16376 ft 357 kts 309°
2026-05-05 16:15 -29.23262 30.73629 17361 ft 364 kts 309°
2026-05-05 16:15 -29.20056 30.69146 18333 ft 368 kts 309°
2026-05-05 16:16 -29.16789 30.64584 19155 ft 372 kts 309°
2026-05-05 16:16 -29.13451 30.59980 19868 ft 379 kts 313°
2026-05-05 16:17 -29.09357 30.56146 20690 ft 383 kts 325°
2026-05-05 16:17 -29.07120 30.54476 21009 ft 386 kts 325°
2026-05-05 16:18 -29.02588 30.51089 21685 ft 391 kts 325°
2026-05-05 16:18 -29.00310 30.49383 22108 ft 392 kts 325°
2026-05-05 16:18 -28.95756 30.45965 22764 ft 397 kts 325°
2026-05-05 16:19 -28.93447 30.44226 23110 ft 399 kts 325°
2026-05-05 16:19 -28.91126 30.42479 23442 ft 401 kts 325°
2026-05-05 16:19 -28.86433 30.38948 23886 ft 406 kts 325°
2026-05-05 16:20 -28.81733 30.35416 24631 ft 404 kts 325°
2026-05-05 16:20 -28.77019 30.31877 25170 ft 407 kts 325°
2026-05-05 16:21 -28.72287 30.28329 25750 ft 408 kts 325°
2026-05-05 16:22 -28.65195 30.23019 26524 ft 410 kts 325°
2026-05-05 16:22 -28.60413 30.19440 26982 ft 412 kts 325°
2026-05-05 16:23 -28.55611 30.15855 27486 ft 412 kts 325°
2026-05-05 16:23 -28.53219 30.14071 27898 ft 409 kts 325°
2026-05-05 16:23 -28.48486 30.10542 28755 ft 403 kts 325°
2026-05-05 16:24 -28.46150 30.08802 29264 ft 398 kts 324°
2026-05-05 16:24 -28.43859 30.07097 29896 ft 390 kts 324°
2026-05-05 16:24 -28.39363 30.03752 30681 ft 384 kts 324°
2026-05-05 16:25 -28.37125 30.02087 30943 ft 384 kts 324°
2026-05-05 16:25 -28.32670 29.98775 31617 ft 380 kts 324°
2026-05-05 16:25 -28.30490 29.97157 31939 ft 378 kts 324°
2026-05-05 16:26 -28.26108 29.93907 32725 ft 372 kts 324°
2026-05-05 16:26 -28.21784 29.90700 33099 ft 375 kts 324°
2026-05-05 16:27 -28.19594 29.89077 33220 ft 378 kts 324°
2026-05-05 16:27 -28.17390 29.87445 33441 ft 378 kts 324°
2026-05-05 16:27 -28.15196 29.85822 33751 ft 376 kts 324°
2026-05-05 16:27 -28.13004 29.84203 33908 ft 376 kts 324°
2026-05-05 16:28 -28.08621 29.80964 33956 ft 377 kts 324°
2026-05-05 16:28 -28.04244 29.77731 33936 ft 378 kts 324°
2026-05-05 16:29 -27.99842 29.74483 33930 ft 377 kts 324°
2026-05-05 16:29 -27.95449 29.71248 33976 ft 377 kts 325°
2026-05-05 16:30 -27.91045 29.68006 33945 ft 377 kts 324°
2026-05-05 16:30 -27.86649 29.64771 33950 ft 375 kts 324°
2026-05-05 16:31 -27.82296 29.61573 33960 ft 374 kts 324°
2026-05-05 16:31 -27.79532 29.59549 33965 ft 374 kts 325°
2026-05-05 16:32 -27.75175 29.56365 33973 ft 372 kts 325°
2026-05-05 16:32 -27.72499 29.54411 33970 ft 372 kts 325°
2026-05-05 16:33 -27.68152 29.51237 33980 ft 378 kts 325°
2026-05-05 16:33 -27.63689 29.47980 33982 ft 386 kts 325°
2026-05-05 16:34 -27.59169 29.44686 33964 ft 387 kts 325°
2026-05-05 16:34 -27.54652 29.41398 33964 ft 385 kts 325°
2026-05-05 16:35 -27.52564 29.39880 33966 ft 384 kts 325°
2026-05-05 16:35 -27.48085 29.36624 33973 ft 382 kts 325°
2026-05-05 16:36 -27.43628 29.33387 33968 ft 381 kts 325°
2026-05-05 16:36 -27.39183 29.30161 33974 ft 379 kts 325°
2026-05-05 16:37 -27.34784 29.26971 33961 ft 378 kts 326°
2026-05-05 16:37 -27.30371 29.23775 33982 ft 378 kts 326°
2026-05-05 16:38 -27.25949 29.20574 33977 ft 378 kts 326°
2026-05-05 16:38 -27.21501 29.17358 33637 ft 383 kts 326°
2026-05-05 16:39 -27.19248 29.15788 33218 ft 379 kts 329°
2026-05-05 16:39 -27.16939 29.14410 32829 ft 373 kts 330°
2026-05-05 16:39 -27.14649 29.13069 32362 ft 369 kts 330°
2026-05-05 16:39 -27.12384 29.11747 31894 ft 365 kts 330°
2026-05-05 16:40 -27.10138 29.10433 31464 ft 362 kts 330°
2026-05-05 16:40 -27.07916 29.09130 31027 ft 359 kts 331°
2026-05-05 16:40 -27.05713 29.07836 30593 ft 356 kts 331°
2026-05-05 16:40 -27.03522 29.06547 30164 ft 354 kts 331°
2026-05-05 16:41 -27.01349 29.05270 29666 ft 352 kts 331°
2026-05-05 16:41 -26.99187 29.03997 29187 ft 349 kts 331°
2026-05-05 16:41 -26.97075 29.02756 28732 ft 346 kts 331°
2026-05-05 16:41 -26.94951 29.01508 28277 ft 343 kts 330°
2026-05-05 16:42 -26.92843 29.00269 27850 ft 340 kts 330°
2026-05-05 16:42 -26.90756 28.99043 27414 ft 337 kts 330°
2026-05-05 16:42 -26.88687 28.97828 26949 ft 335 kts 330°
2026-05-05 16:42 -26.86620 28.96614 26536 ft 335 kts 330°
2026-05-05 16:43 -26.84558 28.95405 26154 ft 334 kts 330°
2026-05-05 16:43 -26.82485 28.94188 25708 ft 339 kts 330°
2026-05-05 16:43 -26.80368 28.92946 25254 ft 346 kts 330°
2026-05-05 16:43 -26.78269 28.91716 24925 ft 341 kts 330°
2026-05-05 16:44 -26.76196 28.90503 24713 ft 333 kts 330°
2026-05-05 16:44 -26.74176 28.89323 24591 ft 322 kts 330°
2026-05-05 16:44 -26.72219 28.88177 24442 ft 313 kts 329°
2026-05-05 16:44 -26.70529 28.86726 24301 ft 303 kts 313°
2026-05-05 16:45 -26.69219 28.84893 23920 ft 304 kts 303°
2026-05-05 16:45 -26.68280 28.82776 23583 ft 306 kts 296°
2026-05-05 16:45 -26.67515 28.80558 23192 ft 305 kts 295°
2026-05-05 16:45 -26.66790 28.78324 22775 ft 304 kts 294°
2026-05-05 16:46 -26.66067 28.76103 22423 ft 302 kts 294°
2026-05-05 16:46 -26.65585 28.74644 22185 ft 301 kts 295°
2026-05-05 16:46 -26.64618 28.71750 21727 ft 299 kts 295°
2026-05-05 16:46 -26.63885 28.69580 21388 ft 297 kts 295°
2026-05-05 16:47 -26.63537 28.68556 21216 ft 297 kts 295°
2026-05-05 16:47 -26.63097 28.67264 21012 ft 296 kts 295°
2026-05-05 16:47 -26.62120 28.64394 20586 ft 294 kts 295°
2026-05-05 16:47 -26.61639 28.62984 20359 ft 293 kts 295°
2026-05-05 16:48 -26.60917 28.60858 20026 ft 292 kts 295°
2026-05-05 16:48 -26.60199 28.58741 19675 ft 290 kts 295°
2026-05-05 16:48 -26.59484 28.56634 19320 ft 291 kts 295°
2026-05-05 16:48 -26.58764 28.54518 18941 ft 291 kts 295°
2026-05-05 16:49 -26.58045 28.52402 18586 ft 291 kts 295°
2026-05-05 16:49 -26.57327 28.50288 18325 ft 288 kts 295°
2026-05-05 16:49 -26.56626 28.48223 18148 ft 281 kts 295°
2026-05-05 16:49 -26.55945 28.46217 18024 ft 272 kts 295°
2026-05-05 16:50 -26.55283 28.44272 17911 ft 263 kts 295°
2026-05-05 16:50 -26.54644 28.42396 17828 ft 254 kts 296°
2026-05-05 16:50 -26.53961 28.40629 17713 ft 241 kts 307°
2026-05-05 16:50 -26.52896 28.39264 17679 ft 228 kts 315°
2026-05-05 16:51 -26.51796 28.38013 17595 ft 223 kts 315°
2026-05-05 16:51 -26.50712 28.36789 17591 ft 223 kts 315°
2026-05-05 16:51 -26.49609 28.35556 17567 ft 230 kts 315°
2026-05-05 16:51 -26.48481 28.34317 17566 ft 227 kts 316°
2026-05-05 16:52 -26.47314 28.33042 17211 ft 243 kts 316°
2026-05-05 16:52 -26.46096 28.31711 16713 ft 247 kts 316°
2026-05-05 16:52 -26.44868 28.30367 16196 ft 248 kts 316°
2026-05-05 16:52 -26.43712 28.28936 15593 ft 252 kts 302°
2026-05-05 16:53 -26.43144 28.27055 15031 ft 261 kts 286°
2026-05-05 16:53 -26.42868 28.25030 14444 ft 266 kts 283°
2026-05-05 16:53 -26.42630 28.22968 13883 ft 269 kts 283°
2026-05-05 16:53 -26.42398 28.20909 13257 ft 271 kts 283°
2026-05-05 16:54 -26.42097 28.18833 12612 ft 269 kts 292°
2026-05-05 16:54 -26.41063 28.17170 11990 ft 264 kts 323°
2026-05-05 16:54 -26.39337 28.16456 11377 ft 274 kts 353°
2026-05-05 16:54 -26.37439 28.16948 10791 ft 293 kts 21°
2026-05-05 16:55 -26.35694 28.18160 10236 ft 295 kts 23°
2026-05-05 16:55 -26.33869 28.19190 9639 ft 291 kts 16°
2026-05-05 16:55 -26.31983 28.19992 9006 ft 289 kts 11°
2026-05-05 16:55 -26.30054 28.20610 8405 ft 288 kts
2026-05-05 16:56 -26.28151 28.21182 8163 ft 276 kts 10°
2026-05-05 16:56 -26.26331 28.21745 7718 ft 272 kts 10°
2026-05-05 16:56 -26.24487 28.22334 7017 ft 279 kts 12°
2026-05-05 16:56 -26.22661 28.22885 6670 ft 272 kts 11°
2026-05-05 16:57 -26.20875 28.23461 6271 ft 261 kts 13°
2026-05-05 16:57 -26.19179 28.23968 5915 ft 243 kts 12°
2026-05-05 16:57 -26.17619 28.24444 5679 ft 222 kts 12°
2026-05-05 16:57 -26.16216 28.24889 5533 ft 197 kts
2026-05-05 16:58 -26.15040 28.25261 5508 ft 146 kts 16°
2026-05-05 16:58 -26.14278 28.25496 5510 ft 83 kts 15°
2026-05-05 16:58 -26.13898 28.25610 5509 ft 43 kts 15°
2026-05-05 16:58 -26.13678 28.25677 5505 ft 15 kts 17°
2026-05-05 16:59 -26.13583 28.25699 5503 ft 12 kts 342°
2026-05-05 16:59 -26.13519 28.25640 5501 ft 12 kts 296°
2026-05-05 16:59 -26.13498 28.25558 5504 ft 10 kts 264°
2026-05-05 16:59 -26.13551 28.25514 5501 ft 11 kts 193°
2026-05-05 17:00 -26.13621 28.25490 5502 ft 10 kts 197°
2026-05-05 17:00 -26.13688 28.25469 5505 ft 12 kts 195°
2026-05-05 17:00 -26.13786 28.25439 5507 ft 18 kts 195°
2026-05-05 17:00 -26.13914 28.25398 5509 ft 18 kts 196°
2026-05-05 17:01 -26.14028 28.25363 5511 ft 16 kts 194°
2026-05-05 17:01 -26.14126 28.25334 5510 ft 14 kts 195°
2026-05-05 17:01 -26.14219 28.25303 5508 ft 15 kts 197°
2026-05-05 17:01 -26.14333 28.25267 5509 ft 17 kts 195°
2026-05-05 17:02 -26.14422 28.25215 5514 ft 13 kts 244°
2026-05-05 17:02 -26.14402 28.25133 5513 ft 10 kts 310°
2026-05-05 17:02 -26.14372 28.25101 5518 ft 1 kts 318°
2026-05-05 17:02 -26.14371 28.25099 5518 ft 1 kts 318°
2026-05-05 17:03 -26.14334 28.25061 5525 ft 12 kts 316°
2026-05-05 17:03 -26.14249 28.24965 5530 ft 25 kts 315°
2026-05-05 17:03 -26.14115 28.24823 5530 ft 25 kts 316°
2026-05-05 17:03 -26.13997 28.24696 5530 ft 22 kts 316°
2026-05-05 17:04 -26.13929 28.24578 5531 ft 17 kts 272°
2026-05-05 17:04 -26.13952 28.24462 5529 ft 14 kts 254°
2026-05-05 17:04 -26.13969 28.24367 5531 ft 10 kts 257°
2026-05-05 17:04 -26.13985 28.24296 5533 ft 9 kts 256°
2026-05-05 17:05 -26.13980 28.24204 5535 ft 14 kts 285°
2026-05-05 17:05 -26.13948 28.24076 5551 ft 18 kts 285°
2026-05-05 17:05 -26.13919 28.23960 5558 ft 14 kts 286°
2026-05-05 17:05 -26.13893 28.23860 5560 ft 13 kts 286°
2026-05-05 17:06 -26.13867 28.23762 5559 ft 16 kts 287°
2026-05-05 17:06 -26.13829 28.23617 5562 ft 19 kts 286°
2026-05-05 17:06 -26.13792 28.23470 5553 ft 22 kts 284°
2026-05-05 17:06 -26.13764 28.23339 5548 ft 14 kts 275°
2026-05-05 17:07 -26.13759 28.23240 5547 ft 11 kts 277°
2026-05-05 17:07 -26.13751 28.23166 5547 ft 9 kts 276°
2026-05-05 17:07 -26.13746 28.23117 5549 ft 3 kts 282°
2026-05-05 17:07 -26.13727 28.23103 5547 ft 4 kts 352°
2026-05-05 17:08 -26.13702 28.23105 5550 ft 4 kts
2026-05-05 17:08 -26.13690 28.23106 5548 ft 0 kts
2026-05-05 17:08 -26.13686 28.23106 5548 ft 1 kts
2026-05-05 17:08 -26.13682 28.23107 5548 ft 0 kts